Terminal Aerodrome Forecast
Issued by NWS Shreveport, LA

Home | Current Version | Previous Version | Text Only | Print | Product List | Glossary On
Versions: 1 2 3 4 5 6 7 8 9 10 11 12 13 14 15 16 17 18 19 20
000
FTUS44 KSHV 020500
TAFELD
TAF
KELD 020522Z 0206/0306 16007KT P6SM SKC
     FM021000 VRB03KT 6SM BR BKN008
      TEMPO 0210/0213 3SM BR BKN003
     FM021300 17003KT P6SM BKN015
     FM021500 19009KT P6SM SCT035
     FM022300 17007G20KT P6SM VCTS SCT050CB
     FM030000 17007KT P6SM FEW060 SCT250=

USA.gov is the U.S. government's official web portal to all federal, state and local government web resources and services.